MFX6765 UZTT-LKMT

Flight info

Callsign MFX6765
Flight time 5h 47m
Altitude 28000
Route DIBAD2C DIBAD N193 OGOLI T898 ZAMWO/K0869F300 T898 DARVA/N0469F300 B476 METKA L88 NIJAT N644 ROLIN UN644 SIN/N0465F320 UN644 INB UL746 ODERO T86 MATEL T746 ARGES DCT BUDOP DCT DEMOP DCT BILNA
Aircraft A306/H-SDE3FGHIRWY/LB1

Departure

Time 2026-04-15 11:06
Airport Tashkent International Airport (UZTT)

Arrival

Time 2026-04-15 16:54
Airport Leoš Janáček Airport Ostrava (LKMT)
Time Latitude Longitude Altitude Speed Heading
2026-04-15 10:33 41.26231 69.27334 1400 ft 0 kts 279°
2026-04-15 10:56 41.26231 69.27331 1407 ft 2 kts 279°
2026-04-15 10:56 41.26232 69.27278 1399 ft 9 kts 260°
2026-04-15 10:56 41.26172 69.27211 1400 ft 14 kts 215°
2026-04-15 10:56 41.26099 69.27210 1399 ft 10 kts 137°
2026-04-15 10:57 41.26069 69.27267 1403 ft 6 kts 97°
2026-04-15 10:57 41.26076 69.27339 1406 ft 5 kts 83°
2026-04-15 10:57 41.26082 69.27395 1409 ft 8 kts 82°
2026-04-15 10:58 41.26091 69.27477 1404 ft 10 kts 82°
2026-04-15 10:58 41.26103 69.27582 1403 ft 13 kts 82°
2026-04-15 10:58 41.26115 69.27690 1406 ft 10 kts 82°
2026-04-15 10:58 41.26123 69.27768 1412 ft 7 kts 81°
2026-04-15 10:59 41.26131 69.27828 1408 ft 6 kts 81°
2026-04-15 10:59 41.26137 69.27888 1413 ft 9 kts 82°
2026-04-15 10:59 41.26148 69.27986 1407 ft 13 kts 82°
2026-04-15 10:59 41.26162 69.28118 1412 ft 16 kts 82°
2026-04-15 11:00 41.26178 69.28277 1410 ft 18 kts 82°
2026-04-15 11:00 41.26191 69.28423 1416 ft 14 kts 90°
2026-04-15 11:00 41.26187 69.28537 1413 ft 11 kts 93°
2026-04-15 11:00 41.26184 69.28621 1419 ft 7 kts 93°
2026-04-15 11:01 41.26177 69.28677 1417 ft 7 kts 113°
2026-04-15 11:01 41.26138 69.28735 1415 ft 10 kts 136°
2026-04-15 11:01 41.26076 69.28814 1419 ft 15 kts 136°
2026-04-15 11:01 41.25991 69.28913 1421 ft 18 kts 139°
2026-04-15 11:02 41.25950 69.29063 1421 ft 20 kts 81°
2026-04-15 11:02 41.25969 69.29255 1426 ft 22 kts 81°
2026-04-15 11:02 41.25993 69.29462 1428 ft 23 kts 82°
2026-04-15 11:02 41.26016 69.29684 1429 ft 25 kts 81°
2026-04-15 11:03 41.26039 69.29893 1431 ft 21 kts 83°
2026-04-15 11:03 41.26056 69.30080 1430 ft 19 kts 83°
2026-04-15 11:03 41.26072 69.30248 1430 ft 17 kts 87°
2026-04-15 11:03 41.26059 69.30351 1429 ft 6 kts 88°
2026-04-15 11:04 41.26085 69.30345 1430 ft 6 kts 302°
2026-04-15 11:04 41.26088 69.30309 1430 ft 0 kts 261°
2026-04-15 11:05 41.26087 69.30299 1430 ft 7 kts 261°
2026-04-15 11:05 41.26053 69.30003 1431 ft 63 kts 261°
2026-04-15 11:05 41.25961 69.29162 1421 ft 120 kts 262°
2026-04-15 11:06 41.25759 69.27288 1476 ft 185 kts 261°
2026-04-15 11:06 41.25524 69.25488 1996 ft 205 kts 264°
2026-04-15 11:06 41.25375 69.24194 2610 ft 213 kts 265°
2026-04-15 11:06 41.25166 69.22226 3190 ft 228 kts 264°
2026-04-15 11:07 41.24937 69.20041 3706 ft 246 kts 263°
2026-04-15 11:07 41.24688 69.17735 4139 ft 260 kts 262°
2026-04-15 11:07 41.24422 69.15343 4852 ft 261 kts 262°
2026-04-15 11:07 41.24164 69.12960 5629 ft 261 kts 261°
2026-04-15 11:08 41.23904 69.10571 6362 ft 262 kts 261°
2026-04-15 11:08 41.23636 69.08171 7043 ft 263 kts 260°
2026-04-15 11:08 41.23358 69.05745 7674 ft 268 kts 259°
2026-04-15 11:08 41.23073 69.03276 8314 ft 272 kts 259°
2026-04-15 11:09 41.22784 69.00775 8968 ft 275 kts 259°
2026-04-15 11:09 41.22490 68.98248 9607 ft 279 kts 258°
2026-04-15 11:09 41.22192 68.95678 10195 ft 283 kts 258°
2026-04-15 11:09 41.21883 68.93039 10510 ft 296 kts 258°
2026-04-15 11:10 41.21557 68.90267 10824 ft 310 kts 258°
2026-04-15 11:10 41.21235 68.87375 11168 ft 324 kts 261°
2026-04-15 11:10 41.21287 68.84296 11472 ft 341 kts 271°
2026-04-15 11:10 41.21541 68.81113 11716 ft 353 kts 272°
2026-04-15 11:11 41.21824 68.77823 11996 ft 363 kts 272°
2026-04-15 11:11 41.22104 68.74514 12463 ft 367 kts 271°
2026-04-15 11:11 41.22384 68.71141 13030 ft 368 kts 271°
2026-04-15 11:11 41.22660 68.67752 13598 ft 369 kts 271°
2026-04-15 11:12 41.22933 68.64357 14155 ft 370 kts 271°
2026-04-15 11:12 41.23204 68.60944 14616 ft 373 kts 270°
2026-04-15 11:12 41.23475 68.57506 15081 ft 376 kts 271°
2026-04-15 11:12 41.23746 68.54047 15598 ft 378 kts 271°
2026-04-15 11:13 41.24017 68.50563 16127 ft 380 kts 271°
2026-04-15 11:13 41.24290 68.47054 16587 ft 383 kts 271°
2026-04-15 11:13 41.24565 68.43524 17053 ft 385 kts 271°
2026-04-15 11:13 41.24841 68.39969 17522 ft 388 kts 271°
2026-04-15 11:14 41.25116 68.36386 17968 ft 390 kts 271°
2026-04-15 11:14 41.25392 68.32781 18403 ft 393 kts 271°
2026-04-15 11:14 41.25667 68.29160 18763 ft 396 kts 271°
2026-04-15 11:14 41.25941 68.25558 19105 ft 398 kts 271°
2026-04-15 11:15 41.26219 68.21873 19461 ft 401 kts 271°
2026-04-15 11:15 41.26494 68.18174 19638 ft 406 kts 274°
2026-04-15 11:15 41.26778 68.14384 19678 ft 417 kts 274°
2026-04-15 11:15 41.27067 68.10525 19969 ft 421 kts 274°
2026-04-15 11:16 41.27356 68.06658 20345 ft 422 kts 274°
2026-04-15 11:16 41.27644 68.02766 20708 ft 424 kts 274°
2026-04-15 11:16 41.27932 67.98860 21054 ft 426 kts 274°
2026-04-15 11:16 41.28228 67.94923 21411 ft 428 kts 275°
2026-04-15 11:17 41.28668 67.90989 21762 ft 431 kts 278°
2026-04-15 11:17 41.29223 67.87067 22096 ft 433 kts 279°
2026-04-15 11:17 41.29841 67.83129 22425 ft 436 kts 280°
2026-04-15 11:17 41.30484 67.79172 22743 ft 438 kts 280°
2026-04-15 11:18 41.31119 67.75258 23055 ft 440 kts 279°
2026-04-15 11:18 41.31758 67.71276 23360 ft 442 kts 279°
2026-04-15 11:18 41.32391 67.67264 23646 ft 444 kts 279°
2026-04-15 11:18 41.33019 67.63233 23898 ft 445 kts 279°
2026-04-15 11:19 41.33642 67.59191 24158 ft 447 kts 279°
2026-04-15 11:19 41.34265 67.55126 24412 ft 448 kts 279°
2026-04-15 11:19 41.34887 67.51057 24655 ft 449 kts 279°
2026-04-15 11:19 41.35510 67.46968 24897 ft 451 kts 278°
2026-04-15 11:20 41.36132 67.42880 25152 ft 452 kts 278°
2026-04-15 11:20 41.36756 67.38770 25386 ft 453 kts 278°
2026-04-15 11:20 41.37380 67.34653 25622 ft 454 kts 278°
2026-04-15 11:20 41.38003 67.30529 25866 ft 455 kts 278°
2026-04-15 11:21 41.38628 67.26384 26099 ft 456 kts 278°
2026-04-15 11:21 41.39244 67.22287 26309 ft 457 kts 278°
2026-04-15 11:21 41.39867 67.18131 26526 ft 458 kts 278°
2026-04-15 11:21 41.40489 67.13965 26732 ft 460 kts 278°
2026-04-15 11:22 41.41113 67.09782 26947 ft 460 kts 278°
2026-04-15 11:22 41.41735 67.05605 27216 ft 460 kts 278°
2026-04-15 11:22 41.42356 67.01427 27520 ft 459 kts 278°
2026-04-15 11:22 41.42971 66.97271 27825 ft 457 kts 277°
2026-04-15 11:23 41.43586 66.93111 28116 ft 456 kts 277°
2026-04-15 11:23 41.44197 66.88964 28397 ft 455 kts 277°
2026-04-15 11:23 41.44804 66.84827 28674 ft 455 kts 277°
2026-04-15 11:23 41.45410 66.80686 28959 ft 454 kts 277°
2026-04-15 11:24 41.46012 66.76566 29253 ft 453 kts 277°
2026-04-15 11:24 41.46612 66.72449 29528 ft 452 kts 277°
2026-04-15 11:24 41.47209 66.68339 29797 ft 451 kts 277°
2026-04-15 11:24 41.47796 66.64281 30023 ft 450 kts 276°
2026-04-15 11:25 41.48292 66.56032 30059 ft 445 kts 268°
2026-04-15 11:25 41.48363 66.47777 30064 ft 444 kts 266°
2026-04-15 11:26 41.48358 66.39542 30045 ft 443 kts 266°
2026-04-15 11:26 41.48350 66.31309 30056 ft 443 kts 266°
2026-04-15 11:27 41.48349 66.23145 30050 ft 443 kts 266°
2026-04-15 11:27 41.48347 66.14935 30056 ft 443 kts 266°
2026-04-15 11:28 41.48341 66.06733 30047 ft 442 kts 266°
2026-04-15 11:28 41.48327 65.98529 30053 ft 442 kts 266°
2026-04-15 11:29 41.48308 65.90341 30042 ft 441 kts 265°
2026-04-15 11:29 41.48283 65.82146 30060 ft 441 kts 265°
2026-04-15 11:30 41.48232 65.73962 30039 ft 441 kts 265°
2026-04-15 11:30 41.48140 65.65772 30049 ft 441 kts 265°
2026-04-15 11:31 41.48041 65.57660 30046 ft 441 kts 265°
2026-04-15 11:31 41.47938 65.49481 30051 ft 441 kts 264°
2026-04-15 11:32 41.47831 65.41306 30049 ft 441 kts 264°
2026-04-15 11:32 41.47721 65.33140 30049 ft 441 kts 264°
2026-04-15 11:33 41.47605 65.24963 30048 ft 440 kts 264°
2026-04-15 11:33 41.47483 65.16791 30045 ft 441 kts 264°
2026-04-15 11:34 41.47354 65.08621 30050 ft 440 kts 264°
2026-04-15 11:34 41.47218 65.00460 30054 ft 441 kts 264°
2026-04-15 11:35 41.47151 64.96381 30192 ft 439 kts 262°
2026-04-15 11:35 41.47086 64.92354 30030 ft 429 kts 262°
2026-04-15 11:35 41.46951 64.84518 30053 ft 424 kts 262°
2026-04-15 11:36 41.46798 64.76636 30045 ft 425 kts 262°
2026-04-15 11:36 41.46640 64.68747 30051 ft 426 kts 262°
2026-04-15 11:37 41.46483 64.60827 30052 ft 426 kts 262°
2026-04-15 11:37 41.46326 64.52984 30043 ft 426 kts 262°
2026-04-15 11:38 41.46157 64.45077 30046 ft 426 kts 262°
2026-04-15 11:38 41.45983 64.37172 30050 ft 427 kts 262°
2026-04-15 11:39 41.45804 64.29267 30047 ft 427 kts 262°
2026-04-15 11:39 41.45619 64.21352 30041 ft 427 kts 262°
2026-04-15 11:40 41.45429 64.13433 30042 ft 427 kts 262°
2026-04-15 11:40 41.45234 64.05520 30043 ft 427 kts 262°
2026-04-15 11:41 41.45033 63.97608 30045 ft 427 kts 262°
2026-04-15 11:41 41.44828 63.89742 30040 ft 427 kts 262°
2026-04-15 11:42 41.44617 63.81835 30038 ft 427 kts 262°
2026-04-15 11:42 41.44400 63.73927 30041 ft 427 kts 262°
2026-04-15 11:43 41.44177 63.66019 30045 ft 427 kts 262°
2026-04-15 11:43 41.43941 63.58112 30040 ft 426 kts 262°
2026-04-15 11:44 41.43695 63.50216 30044 ft 426 kts 262°
2026-04-15 11:44 41.43443 63.42318 30038 ft 426 kts 262°
2026-04-15 11:45 41.43189 63.34477 30041 ft 426 kts 262°
2026-04-15 11:45 41.42927 63.26584 30044 ft 426 kts 262°
2026-04-15 11:46 41.42661 63.18701 30042 ft 426 kts 262°
2026-04-15 11:46 41.42391 63.10822 30042 ft 425 kts 262°
2026-04-15 11:47 41.42115 63.02964 30037 ft 424 kts 262°
2026-04-15 11:47 41.41835 62.95113 30038 ft 423 kts 262°
2026-04-15 11:48 41.41549 62.87281 30037 ft 422 kts 261°
2026-04-15 11:48 41.41259 62.79468 30037 ft 421 kts 261°
2026-04-15 11:49 41.40965 62.71683 30030 ft 420 kts 261°
2026-04-15 11:49 41.40668 62.63966 30034 ft 419 kts 261°
2026-04-15 11:50 41.40364 62.56214 30032 ft 418 kts 261°
2026-04-15 11:50 41.40061 62.48486 30025 ft 417 kts 261°
2026-04-15 11:51 41.39772 62.40768 30030 ft 417 kts 261°
2026-04-15 11:51 41.39483 62.33066 30030 ft 416 kts 261°
2026-04-15 11:52 41.39190 62.25435 30030 ft 414 kts 260°
2026-04-15 11:52 41.38892 62.17782 30029 ft 413 kts 260°
2026-04-15 11:53 41.38589 62.10157 30029 ft 412 kts 260°
2026-04-15 11:53 41.38334 62.03839 30033 ft 410 kts 260°
2026-04-15 11:54 41.38022 61.96256 30026 ft 409 kts 260°
2026-04-15 11:54 41.37707 61.88702 30034 ft 407 kts 259°
2026-04-15 11:55 41.37388 61.81172 30031 ft 406 kts 259°
2026-04-15 11:55 41.37065 61.73671 30030 ft 405 kts 259°
2026-04-15 11:56 41.36741 61.66242 30028 ft 404 kts 259°
2026-04-15 11:56 41.36411 61.58782 30029 ft 403 kts 259°
2026-04-15 11:57 41.35907 61.47626 30035 ft 402 kts 259°
2026-04-15 11:58 41.35564 61.40182 30029 ft 403 kts 259°
2026-04-15 11:58 41.35218 61.32733 30028 ft 403 kts 259°
2026-04-15 11:59 41.34870 61.25277 30027 ft 404 kts 259°
2026-04-15 11:59 41.34517 61.17851 30029 ft 405 kts 260°
2026-04-15 12:00 41.34156 61.10363 30026 ft 406 kts 260°
2026-04-15 12:00 41.33790 61.02868 30029 ft 406 kts 260°
2026-04-15 12:01 41.33418 60.95346 30020 ft 407 kts 260°
2026-04-15 12:01 41.33041 60.87823 30021 ft 408 kts 260°
2026-04-15 12:02 41.32658 60.80272 30020 ft 409 kts 261°
2026-04-15 12:02 41.32272 60.72757 30017 ft 410 kts 261°
2026-04-15 12:03 41.31878 60.65184 30016 ft 411 kts 261°
2026-04-15 12:03 41.31478 60.57589 30017 ft 412 kts 261°
2026-04-15 12:04 41.31072 60.49984 30023 ft 412 kts 261°
2026-04-15 12:04 41.30784 60.42359 30024 ft 416 kts 266°
2026-04-15 12:05 41.31063 60.34650 30020 ft 418 kts 267°
2026-04-15 12:05 41.31444 60.26968 30021 ft 418 kts 268°
2026-04-15 12:06 41.31839 60.19232 30020 ft 419 kts 268°
2026-04-15 12:06 41.32220 60.11505 30017 ft 419 kts 268°
2026-04-15 12:07 41.32591 60.03765 30019 ft 419 kts 268°
2026-04-15 12:07 41.32966 59.96020 30010 ft 419 kts 268°
2026-04-15 12:08 41.33337 59.88320 30009 ft 419 kts 268°
2026-04-15 12:08 41.33704 59.80566 30014 ft 420 kts 268°
2026-04-15 12:09 41.34067 59.72788 30011 ft 421 kts 268°
2026-04-15 12:09 41.34113 59.65030 30014 ft 417 kts 261°
2026-04-15 12:10 41.33508 59.57354 30015 ft 417 kts 259°
2026-04-15 12:10 41.32784 59.49689 30011 ft 418 kts 259°
2026-04-15 12:11 41.32044 59.42056 30013 ft 419 kts 259°
2026-04-15 12:11 41.31303 59.34355 30013 ft 420 kts 259°
2026-04-15 12:12 41.30563 59.26634 30019 ft 422 kts 260°
2026-04-15 12:12 41.29818 59.18884 30018 ft 423 kts 260°
2026-04-15 12:13 41.29065 59.11123 30017 ft 424 kts 260°
2026-04-15 12:13 41.28303 59.03324 30016 ft 426 kts 260°
2026-04-15 12:14 41.27533 58.95503 30019 ft 427 kts 260°
2026-04-15 12:14 41.26753 58.87633 30019 ft 429 kts 261°
2026-04-15 12:15 41.25966 58.79746 30028 ft 430 kts 261°
2026-04-15 12:15 41.25174 58.71880 30021 ft 432 kts 261°
2026-04-15 12:16 41.24370 58.63943 30015 ft 434 kts 261°
2026-04-15 12:16 41.23558 58.55975 30017 ft 436 kts 261°
2026-04-15 12:17 41.22735 58.47966 30016 ft 437 kts 261°
2026-04-15 12:17 41.21907 58.39958 30022 ft 438 kts 261°
2026-04-15 12:18 41.21078 58.31996 30024 ft 438 kts 262°
2026-04-15 12:18 41.20236 58.23971 30022 ft 439 kts 262°
2026-04-15 12:19 41.19387 58.15916 30021 ft 441 kts 262°
2026-04-15 12:19 41.18529 58.07848 30026 ft 442 kts 262°
2026-04-15 12:20 41.17666 57.99759 30025 ft 443 kts 262°
2026-04-15 12:20 41.16789 57.91630 30029 ft 445 kts 262°
2026-04-15 12:21 41.15914 57.83513 30026 ft 447 kts 262°
2026-04-15 12:21 41.15021 57.75329 30033 ft 448 kts 262°
2026-04-15 12:22 41.14116 57.67128 30029 ft 450 kts 263°
2026-04-15 12:22 41.13207 57.58912 30025 ft 451 kts 263°
2026-04-15 12:23 41.12290 57.50673 30028 ft 452 kts 263°
2026-04-15 12:23 41.11361 57.42416 30028 ft 453 kts 263°
2026-04-15 12:24 41.10433 57.34192 30032 ft 454 kts 263°
2026-04-15 12:24 41.09493 57.25897 30030 ft 456 kts 263°
2026-04-15 12:25 41.08543 57.17573 30032 ft 457 kts 263°
2026-04-15 12:25 41.07584 57.09234 30035 ft 458 kts 264°
2026-04-15 12:26 41.06620 57.00885 30031 ft 458 kts 264°
2026-04-15 12:26 41.05644 56.92515 30037 ft 459 kts 264°
2026-04-15 12:27 41.04667 56.84209 30033 ft 460 kts 264°
2026-04-15 12:27 41.03674 56.75776 30035 ft 460 kts 264°
2026-04-15 12:28 41.02683 56.67442 30034 ft 461 kts 264°
2026-04-15 12:28 41.01671 56.59013 30040 ft 463 kts 264°
2026-04-15 12:29 41.00776 56.50559 30046 ft 462 kts 270°
2026-04-15 12:29 41.00556 56.42066 30047 ft 462 kts 272°
2026-04-15 12:30 41.00454 56.33606 30042 ft 463 kts 272°
2026-04-15 12:30 41.00367 56.25083 30049 ft 463 kts 272°
2026-04-15 12:31 41.00263 56.16528 30052 ft 464 kts 272°
2026-04-15 12:31 41.00146 56.08017 30048 ft 465 kts 272°
2026-04-15 12:32 41.00018 55.99448 30054 ft 466 kts 272°
2026-04-15 12:32 40.99885 55.90856 30056 ft 466 kts 272°
2026-04-15 12:33 40.99746 55.82271 30057 ft 467 kts 272°
2026-04-15 12:33 40.99606 55.73684 30054 ft 467 kts 272°
2026-04-15 12:34 40.99474 55.65070 30058 ft 468 kts 272°
2026-04-15 12:34 40.99336 55.56454 30065 ft 468 kts 272°
2026-04-15 12:35 40.99189 55.47829 30067 ft 469 kts 272°
2026-04-15 12:35 40.99036 55.39188 30066 ft 469 kts 272°
2026-04-15 12:36 40.98877 55.30604 30072 ft 469 kts 272°
2026-04-15 12:36 40.98710 55.21962 30074 ft 470 kts 272°
2026-04-15 12:37 40.98535 55.13321 30082 ft 470 kts 272°
2026-04-15 12:37 40.98355 55.04654 30084 ft 470 kts 272°
2026-04-15 12:38 40.98170 54.95988 30092 ft 471 kts 272°
2026-04-15 12:38 40.97976 54.87326 30089 ft 471 kts 272°
2026-04-15 12:39 40.97768 54.78644 30092 ft 471 kts 271°
2026-04-15 12:39 40.97552 54.69972 30098 ft 472 kts 271°
2026-04-15 12:40 40.97331 54.61345 30096 ft 472 kts 271°
2026-04-15 12:40 40.97103 54.52657 30102 ft 473 kts 271°
2026-04-15 12:41 40.96867 54.43954 30098 ft 474 kts 271°
2026-04-15 12:41 40.96625 54.35230 30104 ft 475 kts 271°
2026-04-15 12:42 40.96418 54.27916 30104 ft 475 kts 271°
2026-04-15 12:42 40.96163 54.19168 30104 ft 476 kts 271°
2026-04-15 12:43 40.95902 54.10465 30106 ft 476 kts 271°
2026-04-15 12:43 40.95632 54.01697 30110 ft 476 kts 271°
2026-04-15 12:44 40.95357 53.92918 30114 ft 477 kts 271°
2026-04-15 12:44 40.95076 53.84204 30117 ft 477 kts 271°
2026-04-15 12:45 40.94788 53.75439 30118 ft 477 kts 271°
2026-04-15 12:45 40.94492 53.66669 30120 ft 477 kts 270°
2026-04-15 12:46 40.94190 53.57883 30122 ft 478 kts 270°
2026-04-15 12:46 40.93880 53.49088 30128 ft 478 kts 270°
2026-04-15 12:47 40.93563 53.40288 30129 ft 479 kts 270°
2026-04-15 12:47 40.93240 53.31486 30126 ft 479 kts 270°
2026-04-15 12:48 40.92911 53.22735 30137 ft 480 kts 270°
2026-04-15 12:48 40.92574 53.13924 30136 ft 480 kts 270°
2026-04-15 12:49 40.92224 53.05099 30139 ft 480 kts 270°
2026-04-15 12:49 40.91863 52.96276 30136 ft 480 kts 269°
2026-04-15 12:50 40.91494 52.87459 30142 ft 481 kts 269°
2026-04-15 12:50 40.91119 52.78627 30148 ft 481 kts 269°
2026-04-15 12:51 40.90738 52.69801 30147 ft 481 kts 269°
2026-04-15 12:51 40.90259 52.61040 30142 ft 482 kts 263°
2026-04-15 12:52 40.89050 52.52309 30148 ft 483 kts 261°
2026-04-15 12:52 40.87691 52.43614 30155 ft 483 kts 260°
2026-04-15 12:53 40.86300 52.34927 30155 ft 483 kts 260°
2026-04-15 12:53 40.84914 52.26254 30157 ft 482 kts 260°
2026-04-15 12:54 40.83531 52.17592 30159 ft 482 kts 260°
2026-04-15 12:54 40.82147 52.08947 30160 ft 481 kts 260°
2026-04-15 12:55 40.80757 52.00304 30157 ft 481 kts 259°
2026-04-15 12:55 40.79360 51.91672 30158 ft 481 kts 259°
2026-04-15 12:56 40.77958 51.83048 30162 ft 481 kts 259°
2026-04-15 12:56 40.76559 51.74485 30167 ft 481 kts 259°
2026-04-15 12:57 40.75142 51.65858 30165 ft 481 kts 259°
2026-04-15 12:57 40.73717 51.57222 30174 ft 482 kts 259°
2026-04-15 12:58 40.72536 51.48546 30174 ft 480 kts 267°
2026-04-15 12:58 40.72069 51.39772 30180 ft 480 kts 269°
2026-04-15 12:59 40.71558 51.26590 30169 ft 480 kts 269°
2026-04-15 12:59 40.71212 51.17777 30172 ft 481 kts 269°
2026-04-15 13:00 40.70848 51.08982 30182 ft 481 kts 269°
2026-04-15 13:00 40.70472 51.00180 30175 ft 481 kts 269°
2026-04-15 13:01 40.70089 50.91391 30177 ft 481 kts 269°
2026-04-15 13:01 40.69703 50.82645 30187 ft 481 kts 268°
2026-04-15 13:02 40.69308 50.73854 30179 ft 481 kts 268°
2026-04-15 13:02 40.68905 50.65055 30183 ft 481 kts 268°
2026-04-15 13:03 40.68497 50.56261 30179 ft 481 kts 268°
2026-04-15 13:03 40.68102 50.47462 30177 ft 481 kts 270°
2026-04-15 13:04 40.68859 50.38752 30187 ft 478 kts 283°
2026-04-15 13:04 40.70398 50.30231 30186 ft 477 kts 285°
2026-04-15 13:05 40.72052 50.21811 30185 ft 477 kts 286°
2026-04-15 13:05 40.73707 50.13338 30183 ft 477 kts 285°
2026-04-15 13:06 40.75334 50.04860 30183 ft 477 kts 285°
2026-04-15 13:06 40.76947 49.96356 30181 ft 477 kts 285°
2026-04-15 13:07 40.78548 49.87875 30180 ft 476 kts 285°
2026-04-15 13:07 40.80145 49.79380 30175 ft 476 kts 285°
2026-04-15 13:08 40.81733 49.70901 30184 ft 476 kts 285°
2026-04-15 13:08 40.83306 49.62466 30184 ft 476 kts 285°
2026-04-15 13:09 40.84884 49.53967 30188 ft 476 kts 284°
2026-04-15 13:09 40.86454 49.45478 30191 ft 475 kts 284°
2026-04-15 13:10 40.88017 49.36985 30192 ft 475 kts 284°
2026-04-15 13:10 40.89528 49.28487 30193 ft 475 kts 283°
2026-04-15 13:11 40.90970 49.19956 30189 ft 475 kts 283°
2026-04-15 13:11 40.92399 49.11427 30190 ft 475 kts 283°
2026-04-15 13:12 40.93829 49.02899 30187 ft 476 kts 283°
2026-04-15 13:12 40.95263 48.94340 30187 ft 476 kts 283°
2026-04-15 13:13 40.96691 48.85780 30185 ft 476 kts 282°
2026-04-15 13:13 40.98112 48.77222 30186 ft 476 kts 282°
2026-04-15 13:14 40.99517 48.68712 30178 ft 476 kts 282°
2026-04-15 13:14 41.00925 48.60143 30184 ft 477 kts 282°
2026-04-15 13:15 41.02327 48.51561 30203 ft 477 kts 282°
2026-04-15 13:15 41.03724 48.42980 30183 ft 476 kts 282°
2026-04-15 13:16 41.05116 48.34390 30189 ft 477 kts 282°
2026-04-15 13:16 41.06501 48.25798 30194 ft 477 kts 282°
2026-04-15 13:17 41.07881 48.17182 30184 ft 477 kts 281°
2026-04-15 13:17 41.09243 48.08627 30182 ft 477 kts 281°
2026-04-15 13:18 41.10610 48.00009 30175 ft 478 kts 281°
2026-04-15 13:18 41.11972 47.91391 30181 ft 478 kts 281°
2026-04-15 13:19 41.13331 47.82752 30161 ft 478 kts 281°
2026-04-15 13:19 41.14681 47.74113 30167 ft 478 kts 281°
2026-04-15 13:20 41.16025 47.65464 30157 ft 478 kts 280°
2026-04-15 13:20 41.17365 47.56799 30163 ft 479 kts 280°
2026-04-15 13:21 41.18690 47.48183 30163 ft 478 kts 280°
2026-04-15 13:21 41.20013 47.39542 30171 ft 478 kts 280°
2026-04-15 13:22 41.21331 47.30900 30178 ft 477 kts 280°
2026-04-15 13:22 41.22641 47.22266 30191 ft 476 kts 280°
2026-04-15 13:23 41.23941 47.13632 30188 ft 476 kts 280°
2026-04-15 13:23 41.25233 47.05005 30202 ft 476 kts 280°
2026-04-15 13:24 41.26516 46.96380 30196 ft 475 kts 280°
2026-04-15 13:24 41.27787 46.87822 30204 ft 475 kts 280°
2026-04-15 13:25 41.29063 46.79170 30207 ft 474 kts 280°
2026-04-15 13:25 41.30310 46.70568 30209 ft 473 kts 280°
2026-04-15 13:26 41.31508 46.62040 30208 ft 472 kts 280°
2026-04-15 13:26 41.32698 46.53479 30207 ft 468 kts 280°
2026-04-15 13:27 41.33288 46.49226 30425 ft 466 kts 281°
2026-04-15 13:27 41.33870 46.45020 30936 ft 458 kts 281°
2026-04-15 13:27 41.34443 46.40872 31398 ft 452 kts 281°
2026-04-15 13:27 41.35009 46.36771 31803 ft 448 kts 282°
2026-04-15 13:28 41.35380 46.34073 32047 ft 446 kts 282°
2026-04-15 13:28 41.35938 46.30017 32176 ft 447 kts 282°
2026-04-15 13:28 41.37050 46.21898 32178 ft 445 kts 282°
2026-04-15 13:29 41.38144 46.13849 32177 ft 443 kts 282°
2026-04-15 13:29 41.39236 46.05780 32172 ft 442 kts 282°
2026-04-15 13:30 41.40318 45.97738 32172 ft 441 kts 282°
2026-04-15 13:30 41.41392 45.89712 32164 ft 440 kts 282°
2026-04-15 13:31 41.42457 45.81700 32163 ft 438 kts 282°
2026-04-15 13:31 41.43513 45.73714 32163 ft 437 kts 282°
2026-04-15 13:32 41.44562 45.65742 32160 ft 436 kts 282°
2026-04-15 13:32 41.45601 45.57800 32157 ft 434 kts 282°
2026-04-15 13:33 41.46628 45.49923 32154 ft 433 kts 282°
2026-04-15 13:33 41.47650 45.42028 32155 ft 431 kts 282°
2026-04-15 13:34 41.48607 45.34089 32152 ft 431 kts 281°
2026-04-15 13:34 41.49278 45.26209 32156 ft 430 kts 279°
2026-04-15 13:35 41.49879 45.18285 32159 ft 428 kts 279°
2026-04-15 13:35 41.50491 45.10396 32159 ft 426 kts 280°
2026-04-15 13:36 41.51118 45.02538 32161 ft 425 kts 280°
2026-04-15 13:36 41.51743 44.94716 32162 ft 423 kts 280°
2026-04-15 13:37 41.52359 44.86924 32167 ft 421 kts 280°
2026-04-15 13:37 41.52965 44.79197 32164 ft 420 kts 280°
2026-04-15 13:38 41.53567 44.71455 32160 ft 419 kts 281°
2026-04-15 13:38 41.54164 44.63692 32162 ft 419 kts 281°
2026-04-15 13:39 41.54754 44.55959 32162 ft 418 kts 281°
2026-04-15 13:39 41.55339 44.48227 32160 ft 418 kts 281°
2026-04-15 13:40 41.55914 44.40559 32156 ft 417 kts 281°
2026-04-15 13:40 41.56487 44.32836 32171 ft 418 kts 280°
2026-04-15 13:41 41.57057 44.25113 32166 ft 418 kts 280°
2026-04-15 13:41 41.57644 44.17392 32174 ft 418 kts 281°
2026-04-15 13:42 41.58251 44.09664 32178 ft 418 kts 281°
2026-04-15 13:42 41.58852 44.01985 32185 ft 418 kts 281°
2026-04-15 13:43 41.59449 43.94261 32196 ft 418 kts 280°
2026-04-15 13:43 41.60041 43.86521 32203 ft 418 kts 280°
2026-04-15 13:44 41.60625 43.78784 32204 ft 418 kts 280°
2026-04-15 13:44 41.61203 43.71052 32209 ft 418 kts 280°
2026-04-15 13:45 41.61777 43.63317 32206 ft 418 kts 280°
2026-04-15 13:47 41.64030 43.32349 32204 ft 420 kts 279°
2026-04-15 13:47 41.64587 43.24574 32203 ft 420 kts 279°
2026-04-15 13:48 41.65135 43.16785 32203 ft 421 kts 279°
2026-04-15 13:48 41.65679 43.08994 32201 ft 420 kts 279°
2026-04-15 13:49 41.66219 43.01207 32204 ft 421 kts 279°
2026-04-15 13:49 41.66755 42.93409 32208 ft 421 kts 279°
2026-04-15 13:50 41.67282 42.85616 32211 ft 421 kts 278°
2026-04-15 13:50 41.67800 42.77852 32218 ft 421 kts 278°
2026-04-15 13:51 41.68314 42.70038 32222 ft 421 kts 278°
2026-04-15 13:51 41.68828 42.62229 32224 ft 422 kts 278°
2026-04-15 13:52 41.69337 42.54408 32225 ft 422 kts 278°
2026-04-15 13:52 41.69838 42.46564 32233 ft 423 kts 278°
2026-04-15 13:53 41.70334 42.38723 32238 ft 423 kts 278°
2026-04-15 13:53 41.70830 42.30873 32238 ft 424 kts 278°
2026-04-15 13:54 41.71318 42.22996 32236 ft 424 kts 278°
2026-04-15 13:54 41.71799 42.15108 32238 ft 426 kts 278°
2026-04-15 13:55 41.72275 42.07266 32245 ft 425 kts 277°
2026-04-15 13:55 41.72752 41.99371 32249 ft 425 kts 277°
2026-04-15 13:56 41.73219 41.91472 32257 ft 426 kts 277°
2026-04-15 13:56 41.73681 41.83558 32264 ft 426 kts 277°
2026-04-15 13:57 41.74138 41.75651 32268 ft 426 kts 277°
2026-04-15 13:57 41.74588 41.67738 32269 ft 426 kts 277°
2026-04-15 13:58 41.75033 41.59840 32273 ft 427 kts 277°
2026-04-15 13:58 41.75474 41.51920 32270 ft 427 kts 277°
2026-04-15 13:59 41.75910 41.43981 32269 ft 427 kts 277°
2026-04-15 13:59 41.76341 41.36052 32260 ft 427 kts 277°
2026-04-15 14:00 41.76766 41.28117 32260 ft 427 kts 277°
2026-04-15 14:00 41.77187 41.20167 32247 ft 428 kts 277°
2026-04-15 14:01 41.77805 41.08292 32250 ft 428 kts 276°
2026-04-15 14:02 41.78212 41.00335 32242 ft 428 kts 276°
2026-04-15 14:02 41.78615 40.92361 32244 ft 428 kts 276°
2026-04-15 14:03 41.79012 40.84389 32244 ft 429 kts 276°
2026-04-15 14:03 41.79403 40.76410 32244 ft 429 kts 276°
2026-04-15 14:04 41.79790 40.68425 32239 ft 430 kts 276°
2026-04-15 14:04 41.80158 40.60477 32237 ft 430 kts 275°
2026-04-15 14:05 41.80509 40.52471 32240 ft 430 kts 275°
2026-04-15 14:05 41.80853 40.44454 32241 ft 431 kts 275°
2026-04-15 14:06 41.81193 40.36440 32248 ft 431 kts 275°
2026-04-15 14:06 41.81529 40.28416 32245 ft 431 kts 275°
2026-04-15 14:07 41.81859 40.20389 32242 ft 431 kts 275°
2026-04-15 14:07 41.82185 40.12345 32242 ft 432 kts 275°
2026-04-15 14:08 41.82503 40.04315 32243 ft 432 kts 275°
2026-04-15 14:08 41.82817 39.96259 32242 ft 432 kts 275°
2026-04-15 14:09 41.83125 39.88193 32245 ft 432 kts 275°
2026-04-15 14:09 41.83426 39.80179 32254 ft 433 kts 274°
2026-04-15 14:10 41.83723 39.72114 32247 ft 433 kts 274°
2026-04-15 14:10 41.84014 39.64039 32244 ft 433 kts 274°
2026-04-15 14:11 41.84299 39.56006 32248 ft 433 kts 274°
2026-04-15 14:11 41.84580 39.47933 32245 ft 433 kts 274°
2026-04-15 14:12 41.84855 39.39861 32248 ft 434 kts 274°
2026-04-15 14:12 41.85125 39.31774 32248 ft 434 kts 274°
2026-04-15 14:13 41.85390 39.23680 32248 ft 434 kts 274°
2026-04-15 14:13 41.85649 39.15591 32247 ft 434 kts 274°
2026-04-15 14:14 41.85902 39.07508 32244 ft 434 kts 274°
2026-04-15 14:14 41.86148 38.99470 32245 ft 433 kts 274°
2026-04-15 14:15 41.86390 38.91391 32245 ft 433 kts 274°
2026-04-15 14:15 41.86625 38.83323 32245 ft 432 kts 274°
2026-04-15 14:16 41.86855 38.75268 32247 ft 432 kts 274°
2026-04-15 14:16 41.87041 38.68589 32243 ft 431 kts 274°
2026-04-15 14:17 41.87260 38.60549 32250 ft 430 kts 274°
2026-04-15 14:17 41.87472 38.52544 32248 ft 429 kts 274°
2026-04-15 14:18 41.87679 38.44551 32241 ft 428 kts 274°
2026-04-15 14:18 41.87879 38.36570 32247 ft 427 kts 274°
2026-04-15 14:19 41.88074 38.28617 32247 ft 426 kts 274°
2026-04-15 14:19 41.88262 38.20688 32249 ft 425 kts 274°
2026-04-15 14:20 41.88444 38.12776 32245 ft 423 kts 274°
2026-04-15 14:20 41.88620 38.04897 32243 ft 422 kts 274°
2026-04-15 14:21 41.88791 37.97040 32235 ft 420 kts 274°
2026-04-15 14:21 41.88955 37.89223 32234 ft 418 kts 274°
2026-04-15 14:22 41.89113 37.81431 32233 ft 417 kts 274°
2026-04-15 14:22 41.89265 37.73718 32241 ft 415 kts 274°
2026-04-15 14:23 41.89412 37.65975 32240 ft 414 kts 274°
2026-04-15 14:23 41.89553 37.58271 32236 ft 412 kts 274°
2026-04-15 14:24 41.89688 37.50588 32230 ft 411 kts 274°
2026-04-15 14:24 41.89818 37.42917 32224 ft 410 kts 274°
2026-04-15 14:25 41.89943 37.35270 32230 ft 409 kts 274°
2026-04-15 14:25 41.90061 37.27694 32239 ft 408 kts 274°
2026-04-15 14:26 41.90175 37.20088 32236 ft 407 kts 274°
2026-04-15 14:26 41.90285 37.12498 32239 ft 406 kts 274°
2026-04-15 14:27 41.90396 37.04927 32239 ft 405 kts 275°
2026-04-15 14:27 41.90788 36.97407 32239 ft 403 kts 278°
2026-04-15 14:28 41.91344 36.89919 32233 ft 403 kts 278°
2026-04-15 14:28 41.91892 36.82424 32234 ft 402 kts 278°
2026-04-15 14:29 41.92405 36.74946 32230 ft 402 kts 278°
2026-04-15 14:29 41.92900 36.67462 32230 ft 402 kts 277°
2026-04-15 14:30 41.93385 36.60033 32232 ft 401 kts 277°
2026-04-15 14:30 41.93869 36.52557 32229 ft 401 kts 277°
2026-04-15 14:31 41.94349 36.45088 32231 ft 401 kts 277°
2026-04-15 14:31 41.94824 36.37630 32224 ft 401 kts 277°
2026-04-15 14:32 41.95294 36.30161 32225 ft 400 kts 277°
2026-04-15 14:32 41.95759 36.22701 32225 ft 400 kts 277°
2026-04-15 14:33 41.96217 36.15276 32228 ft 400 kts 277°
2026-04-15 14:33 41.96672 36.07812 32223 ft 400 kts 277°
2026-04-15 14:34 41.97122 36.00356 32220 ft 400 kts 277°
2026-04-15 14:34 41.97567 35.92890 32215 ft 400 kts 277°
2026-04-15 14:35 41.98007 35.85431 32217 ft 401 kts 277°
2026-04-15 14:35 41.98443 35.77958 32215 ft 401 kts 277°
2026-04-15 14:36 41.98874 35.70495 32219 ft 401 kts 276°
2026-04-15 14:36 41.99298 35.63067 32213 ft 401 kts 276°
2026-04-15 14:37 41.99719 35.55597 32215 ft 401 kts 276°
2026-04-15 14:37 42.00135 35.48120 32218 ft 401 kts 276°
2026-04-15 14:38 42.00547 35.40638 32221 ft 401 kts 276°
2026-04-15 14:38 42.00955 35.33151 32233 ft 401 kts 276°
2026-04-15 14:39 42.01358 35.25654 32237 ft 401 kts 276°
2026-04-15 14:39 42.01753 35.18205 32251 ft 402 kts 276°
2026-04-15 14:40 42.02145 35.10702 32249 ft 402 kts 276°
2026-04-15 14:40 42.02094 35.03173 32247 ft 404 kts 270°
2026-04-15 14:41 42.01774 34.95633 32245 ft 404 kts 269°
2026-04-15 14:41 42.01402 34.88098 32239 ft 404 kts 269°
2026-04-15 14:42 42.01027 34.80590 32224 ft 404 kts 269°
2026-04-15 14:42 42.00654 34.73040 32207 ft 404 kts 269°
2026-04-15 14:43 42.00279 34.65501 32186 ft 404 kts 269°
2026-04-15 14:43 41.99900 34.57955 32168 ft 404 kts 269°
2026-04-15 14:44 41.99516 34.50413 32167 ft 404 kts 269°
2026-04-15 14:44 41.99127 34.42866 32165 ft 404 kts 269°
2026-04-15 14:45 41.98735 34.35371 32161 ft 405 kts 269°
2026-04-15 14:45 41.98335 34.27822 32159 ft 405 kts 269°
2026-04-15 14:46 41.97930 34.20269 32160 ft 405 kts 269°
2026-04-15 14:46 41.97521 34.12721 32158 ft 405 kts 268°
2026-04-15 14:47 41.97107 34.05174 32153 ft 405 kts 268°
2026-04-15 14:47 41.96686 33.97625 32163 ft 405 kts 268°
2026-04-15 14:48 41.96253 33.90065 32156 ft 405 kts 268°
2026-04-15 14:48 41.95828 33.82561 32151 ft 405 kts 268°
2026-04-15 14:49 41.95410 33.74994 32148 ft 405 kts 269°
2026-04-15 14:49 41.95831 33.67489 32149 ft 403 kts 282°
2026-04-15 14:50 41.97110 33.60157 32148 ft 403 kts 284°
2026-04-15 14:50 41.98532 33.52884 32159 ft 403 kts 284°
2026-04-15 14:51 41.99963 33.45595 32151 ft 404 kts 284°
2026-04-15 14:51 42.01372 33.38284 32150 ft 404 kts 284°
2026-04-15 14:52 42.02759 33.31008 32148 ft 404 kts 284°
2026-04-15 14:52 42.04148 33.23680 32151 ft 405 kts 284°
2026-04-15 14:53 42.05535 33.16337 32149 ft 405 kts 284°
2026-04-15 14:53 42.06921 33.08979 32156 ft 405 kts 284°
2026-04-15 14:54 42.08376 33.01645 32156 ft 406 kts 285°
2026-04-15 14:54 42.09886 32.94326 32156 ft 406 kts 285°
2026-04-15 14:55 42.11395 32.86993 32155 ft 406 kts 285°
2026-04-15 14:55 42.12893 32.79648 32160 ft 407 kts 285°
2026-04-15 14:56 42.14382 32.72297 32160 ft 407 kts 284°
2026-04-15 14:56 42.15859 32.64973 32158 ft 407 kts 284°
2026-04-15 14:57 42.17340 32.57599 32164 ft 408 kts 284°
2026-04-15 14:57 42.18817 32.50209 32164 ft 408 kts 284°
2026-04-15 14:58 42.20291 32.42808 32163 ft 409 kts 284°
2026-04-15 14:58 42.21763 32.35389 32162 ft 409 kts 284°
2026-04-15 14:59 42.23232 32.27961 32168 ft 409 kts 284°
2026-04-15 14:59 42.24688 32.20572 32167 ft 410 kts 284°
2026-04-15 15:00 42.26145 32.13122 32172 ft 410 kts 284°
2026-04-15 15:00 42.27596 32.05695 32174 ft 411 kts 284°
2026-04-15 15:01 42.29055 31.98224 32174 ft 411 kts 284°
2026-04-15 15:01 42.30513 31.90737 32175 ft 412 kts 284°
2026-04-15 15:02 42.31967 31.83238 32177 ft 413 kts 284°
2026-04-15 15:02 42.33420 31.75708 32173 ft 414 kts 284°
2026-04-15 15:03 42.34625 31.69447 32182 ft 415 kts 284°
2026-04-15 15:03 42.36074 31.61887 32178 ft 415 kts 283°
2026-04-15 15:04 42.37757 31.53076 32179 ft 416 kts 283°
2026-04-15 15:04 42.38966 31.46715 32180 ft 417 kts 283°
2026-04-15 15:05 42.40407 31.39112 32182 ft 417 kts 283°
2026-04-15 15:05 42.41835 31.31544 32183 ft 418 kts 283°
2026-04-15 15:06 42.43986 31.20089 32184 ft 419 kts 283°
2026-04-15 15:06 42.45415 31.12441 32184 ft 419 kts 283°
2026-04-15 15:07 42.46841 31.04773 32187 ft 420 kts 283°
2026-04-15 15:07 42.48261 30.97097 32191 ft 420 kts 283°
2026-04-15 15:08 42.49669 30.89453 32194 ft 420 kts 283°
2026-04-15 15:08 42.51083 30.81749 32197 ft 421 kts 283°
2026-04-15 15:09 42.52490 30.74053 32190 ft 421 kts 283°
2026-04-15 15:09 42.53893 30.66347 32191 ft 421 kts 283°
2026-04-15 15:10 42.55293 30.58621 32195 ft 421 kts 283°
2026-04-15 15:10 42.56688 30.50895 32191 ft 422 kts 283°
2026-04-15 15:11 42.58070 30.43209 32195 ft 422 kts 283°
2026-04-15 15:11 42.59456 30.35471 32197 ft 422 kts 283°
2026-04-15 15:12 42.60880 30.27737 32198 ft 423 kts 286°
2026-04-15 15:12 42.62983 30.20265 32202 ft 423 kts 291°
2026-04-15 15:13 42.65271 30.12875 32202 ft 424 kts 291°
2026-04-15 15:13 42.67585 30.05507 32201 ft 424 kts 291°
2026-04-15 15:14 42.69878 29.98163 32201 ft 424 kts 291°
2026-04-15 15:14 42.72172 29.90761 32204 ft 424 kts 291°
2026-04-15 15:15 42.74460 29.83346 32199 ft 425 kts 291°
2026-04-15 15:15 42.76743 29.75928 32207 ft 425 kts 291°
2026-04-15 15:16 42.79026 29.68487 32207 ft 426 kts 291°
2026-04-15 15:16 42.81310 29.61025 32201 ft 426 kts 291°
2026-04-15 15:17 42.83572 29.53611 32204 ft 426 kts 291°
2026-04-15 15:17 42.85843 29.46150 32202 ft 427 kts 291°
2026-04-15 15:18 42.88115 29.38662 32207 ft 427 kts 291°
2026-04-15 15:18 42.90384 29.31162 32208 ft 427 kts 291°
2026-04-15 15:19 42.92648 29.23656 32208 ft 428 kts 291°
2026-04-15 15:19 42.94895 29.16187 32204 ft 428 kts 291°
2026-04-15 15:20 42.97152 29.08664 32210 ft 428 kts 291°
2026-04-15 15:20 42.99406 29.01126 32205 ft 429 kts 290°
2026-04-15 15:21 43.01658 28.93572 32209 ft 429 kts 290°
2026-04-15 15:21 43.03908 28.86005 32208 ft 429 kts 290°
2026-04-15 15:22 43.06435 28.78607 32208 ft 432 kts 300°
2026-04-15 15:22 43.09817 28.71864 32208 ft 433 kts 303°
2026-04-15 15:23 43.13385 28.65206 32212 ft 434 kts 304°
2026-04-15 15:23 43.16976 28.58561 32202 ft 434 kts 304°
2026-04-15 15:24 43.20551 28.51896 32205 ft 434 kts 304°
2026-04-15 15:24 43.24113 28.45212 32208 ft 434 kts 303°
2026-04-15 15:25 43.27668 28.38521 32205 ft 434 kts 303°
2026-04-15 15:25 43.31221 28.31816 32211 ft 434 kts 303°
2026-04-15 15:26 43.34772 28.25102 32210 ft 434 kts 303°
2026-04-15 15:26 43.37138 28.20622 32215 ft 434 kts 303°
2026-04-15 15:27 43.40692 28.13877 32218 ft 435 kts 303°
2026-04-15 15:27 43.44240 28.07129 32215 ft 434 kts 303°
2026-04-15 15:28 43.47782 28.00377 32218 ft 435 kts 303°
2026-04-15 15:28 43.51315 27.93625 32216 ft 435 kts 303°
2026-04-15 15:29 43.54849 27.86857 32210 ft 435 kts 303°
2026-04-15 15:29 43.58383 27.80073 32205 ft 435 kts 303°
2026-04-15 15:30 43.61910 27.73288 32201 ft 435 kts 303°
2026-04-15 15:30 43.65417 27.66525 32197 ft 435 kts 303°
2026-04-15 15:31 43.68935 27.59723 32194 ft 435 kts 303°
2026-04-15 15:31 43.72452 27.52909 32189 ft 435 kts 303°
2026-04-15 15:32 43.75968 27.46083 32187 ft 435 kts 303°
2026-04-15 15:32 43.79479 27.39249 32179 ft 435 kts 303°
2026-04-15 15:33 43.82985 27.32408 32180 ft 435 kts 303°
2026-04-15 15:33 43.86489 27.25556 32172 ft 435 kts 303°
2026-04-15 15:34 43.89987 27.18701 32169 ft 435 kts 303°
2026-04-15 15:34 43.93478 27.11842 32166 ft 435 kts 302°
2026-04-15 15:35 43.96966 27.04973 32164 ft 435 kts 302°
2026-04-15 15:35 44.00433 26.98129 32159 ft 436 kts 302°
2026-04-15 15:36 44.03914 26.91241 32159 ft 436 kts 302°
2026-04-15 15:36 44.07391 26.84345 32159 ft 436 kts 302°
2026-04-15 15:37 44.10948 26.77502 32156 ft 436 kts 304°
2026-04-15 15:37 44.14580 26.70735 32155 ft 436 kts 304°
2026-04-15 15:38 44.18213 26.63965 32157 ft 436 kts 304°
2026-04-15 15:38 44.21833 26.57174 32157 ft 436 kts 304°
2026-04-15 15:39 44.25428 26.50397 32155 ft 436 kts 304°
2026-04-15 15:39 44.29039 26.43570 32158 ft 436 kts 304°
2026-04-15 15:40 44.32645 26.36738 32161 ft 437 kts 304°
2026-04-15 15:40 44.36244 26.29905 32164 ft 437 kts 304°
2026-04-15 15:41 44.39844 26.23053 32166 ft 437 kts 304°
2026-04-15 15:41 44.43440 26.16192 32168 ft 437 kts 304°
2026-04-15 15:42 44.47031 26.09326 32166 ft 437 kts 304°
2026-04-15 15:42 44.50604 26.02476 32166 ft 438 kts 304°
2026-04-15 15:43 44.54193 25.95578 32167 ft 438 kts 304°
2026-04-15 15:43 44.57779 25.88671 32167 ft 438 kts 304°
2026-04-15 15:44 44.61363 25.81751 32163 ft 439 kts 304°
2026-04-15 15:44 44.64947 25.74813 32161 ft 439 kts 304°
2026-04-15 15:45 44.68536 25.67853 32167 ft 440 kts 304°
2026-04-15 15:45 44.72120 25.60885 32165 ft 440 kts 304°
2026-04-15 15:46 44.75706 25.53893 32161 ft 440 kts 304°
2026-04-15 15:46 44.79262 25.46943 32161 ft 441 kts 304°
2026-04-15 15:47 44.82839 25.39937 32166 ft 441 kts 304°
2026-04-15 15:47 44.86414 25.32917 32160 ft 441 kts 303°
2026-04-15 15:48 44.89985 25.25887 32156 ft 441 kts 303°
2026-04-15 15:48 44.93548 25.18857 32153 ft 440 kts 303°
2026-04-15 15:49 44.97111 25.11810 32154 ft 440 kts 303°
2026-04-15 15:49 45.00669 25.04754 32150 ft 440 kts 303°
2026-04-15 15:50 45.03619 24.98891 32150 ft 440 kts 303°
2026-04-15 15:50 45.07163 24.91830 32150 ft 440 kts 303°
2026-04-15 15:51 45.10706 24.84757 32153 ft 440 kts 303°
2026-04-15 15:51 45.14240 24.77682 32151 ft 440 kts 303°
2026-04-15 15:52 45.17767 24.70605 32146 ft 440 kts 303°
2026-04-15 15:52 45.21273 24.63551 32145 ft 440 kts 303°
2026-04-15 15:53 45.24795 24.56451 32146 ft 440 kts 303°
2026-04-15 15:53 45.28313 24.49337 32140 ft 440 kts 303°
2026-04-15 15:54 45.31826 24.42215 32139 ft 440 kts 303°
2026-04-15 15:54 45.35336 24.35081 32139 ft 440 kts 303°
2026-04-15 15:55 45.38838 24.27949 32137 ft 440 kts 303°
2026-04-15 15:55 45.42314 24.20848 32132 ft 440 kts 303°
2026-04-15 15:56 45.45809 24.13694 32127 ft 440 kts 303°
2026-04-15 15:56 45.49318 24.06490 32119 ft 440 kts 303°
2026-04-15 15:57 45.52785 23.99357 32108 ft 440 kts 303°
2026-04-15 15:57 45.56266 23.92175 32108 ft 439 kts 303°
2026-04-15 15:58 45.59745 23.84981 32107 ft 439 kts 302°
2026-04-15 15:58 45.63215 23.77784 32106 ft 439 kts 302°
2026-04-15 15:59 45.66656 23.70632 32107 ft 439 kts 302°
2026-04-15 15:59 45.70113 23.63427 32108 ft 439 kts 302°
2026-04-15 16:00 45.73565 23.56217 32112 ft 439 kts 302°
2026-04-15 16:00 45.77011 23.49001 32104 ft 439 kts 302°
2026-04-15 16:01 45.80450 23.41778 32108 ft 439 kts 302°
2026-04-15 16:01 45.83887 23.34540 32108 ft 438 kts 302°
2026-04-15 16:02 45.87292 23.27353 32102 ft 438 kts 302°
2026-04-15 16:02 45.90720 23.20102 32102 ft 438 kts 302°
2026-04-15 16:03 45.94140 23.12844 32105 ft 439 kts 302°
2026-04-15 16:03 45.97557 23.05578 32101 ft 439 kts 302°
2026-04-15 16:04 46.00972 22.98296 32096 ft 439 kts 302°
2026-04-15 16:04 46.04382 22.91005 32101 ft 439 kts 302°
2026-04-15 16:05 46.07783 22.83713 32102 ft 439 kts 302°
2026-04-15 16:05 46.11163 22.76450 32089 ft 439 kts 302°
2026-04-15 16:06 46.14557 22.69135 32094 ft 439 kts 302°
2026-04-15 16:06 46.17946 22.61816 32098 ft 439 kts 302°
2026-04-15 16:07 46.21334 22.54479 32092 ft 439 kts 302°
2026-04-15 16:08 46.26403 22.43462 32113 ft 439 kts 302°
2026-04-15 16:08 46.29777 22.36105 32115 ft 439 kts 302°
2026-04-15 16:09 46.33144 22.28746 32115 ft 438 kts 302°
2026-04-15 16:09 46.36479 22.21435 32107 ft 438 kts 302°
2026-04-15 16:10 46.39837 22.14055 32117 ft 438 kts 302°
2026-04-15 16:10 46.43186 22.06678 32118 ft 438 kts 301°
2026-04-15 16:11 46.46533 21.99283 32115 ft 438 kts 301°
2026-04-15 16:11 46.49850 21.91935 32114 ft 437 kts 301°
2026-04-15 16:12 46.53179 21.84541 32118 ft 437 kts 301°
2026-04-15 16:12 46.56507 21.77130 32112 ft 437 kts 301°
2026-04-15 16:13 46.59829 21.69714 32111 ft 437 kts 301°
2026-04-15 16:13 46.63144 21.62292 32116 ft 437 kts 301°
2026-04-15 16:14 46.66459 21.54874 32123 ft 437 kts 302°
2026-04-15 16:14 46.70532 21.48332 32120 ft 442 kts 318°
2026-04-15 16:15 46.75583 21.43152 32126 ft 444 kts 323°
2026-04-15 16:15 46.80789 21.38282 32128 ft 445 kts 324°
2026-04-15 16:16 46.86022 21.33428 32121 ft 445 kts 324°
2026-04-15 16:16 46.91234 21.28542 32131 ft 445 kts 324°
2026-04-15 16:17 46.96440 21.23621 32126 ft 445 kts 324°
2026-04-15 16:17 47.01635 21.18692 32126 ft 445 kts 324°
2026-04-15 16:18 47.06836 21.13745 32129 ft 446 kts 324°
2026-04-15 16:18 47.12001 21.08823 32129 ft 446 kts 324°
2026-04-15 16:19 47.17197 21.03861 32132 ft 446 kts 324°
2026-04-15 16:19 47.22405 20.98875 32135 ft 446 kts 324°
2026-04-15 16:20 47.27609 20.93880 32132 ft 447 kts 324°
2026-04-15 16:20 47.32816 20.88872 32136 ft 447 kts 324°
2026-04-15 16:21 47.38024 20.83850 32135 ft 447 kts 324°
2026-04-15 16:21 47.43200 20.78847 32134 ft 447 kts 324°
2026-04-15 16:22 47.48406 20.73803 32133 ft 447 kts 324°
2026-04-15 16:22 47.53616 20.68743 32138 ft 448 kts 324°
2026-04-15 16:23 47.58822 20.63676 32138 ft 448 kts 324°
2026-04-15 16:23 47.64034 20.58589 32138 ft 448 kts 324°
2026-04-15 16:24 47.69244 20.53492 32138 ft 448 kts 324°
2026-04-15 16:24 47.74424 20.48412 32137 ft 448 kts 324°
2026-04-15 16:25 47.79626 20.43298 32136 ft 449 kts 324°
2026-04-15 16:25 47.84835 20.38165 32141 ft 449 kts 324°
2026-04-15 16:26 47.90039 20.33025 32137 ft 449 kts 324°
2026-04-15 16:26 47.95252 20.27862 32142 ft 449 kts 324°
2026-04-15 16:27 48.00456 20.22696 32144 ft 450 kts 324°
2026-04-15 16:27 48.05635 20.17541 32134 ft 450 kts 324°
2026-04-15 16:28 48.10846 20.12344 32141 ft 450 kts 324°
2026-04-15 16:28 48.16059 20.07131 32135 ft 450 kts 324°
2026-04-15 16:29 48.20925 20.01246 32139 ft 449 kts 319°
2026-04-15 16:29 48.25692 19.95181 32146 ft 450 kts 318°
2026-04-15 16:30 48.30418 19.89117 32143 ft 450 kts 318°
2026-04-15 16:30 48.35181 19.82985 32156 ft 450 kts 318°
2026-04-15 16:31 48.39938 19.76844 31814 ft 450 kts 318°
2026-04-15 16:31 48.42320 19.73762 31477 ft 450 kts 318°
2026-04-15 16:31 48.44666 19.70723 31157 ft 451 kts 318°
2026-04-15 16:31 48.47045 19.67638 30843 ft 451 kts 318°
2026-04-15 16:32 48.49430 19.64540 30401 ft 452 kts 318°
2026-04-15 16:32 48.51817 19.61437 29842 ft 453 kts 318°
2026-04-15 16:32 48.54205 19.58327 29246 ft 454 kts 318°
2026-04-15 16:32 48.56599 19.55206 28681 ft 456 kts 318°
2026-04-15 16:33 48.58999 19.52073 28109 ft 457 kts 318°
2026-04-15 16:33 48.61415 19.48916 27554 ft 459 kts 318°
2026-04-15 16:33 48.63832 19.45751 27010 ft 460 kts 318°
2026-04-15 16:33 48.66257 19.42573 26486 ft 462 kts 318°
2026-04-15 16:34 48.68688 19.39383 25957 ft 463 kts 318°
2026-04-15 16:34 48.71119 19.36189 25477 ft 461 kts 318°
2026-04-15 16:34 48.73523 19.33028 24970 ft 453 kts 317°
2026-04-15 16:34 48.75875 19.29932 24464 ft 443 kts 317°
2026-04-15 16:35 48.78182 19.26889 23970 ft 435 kts 317°
2026-04-15 16:35 48.80444 19.23901 23427 ft 428 kts 317°
2026-04-15 16:35 48.82673 19.20953 22835 ft 421 kts 317°
2026-04-15 16:35 48.84862 19.18052 22286 ft 415 kts 317°
2026-04-15 16:36 48.87031 19.15176 21724 ft 412 kts 317°
2026-04-15 16:36 48.89188 19.12313 21195 ft 411 kts 317°
2026-04-15 16:36 48.91304 19.09501 20675 ft 409 kts 317°
2026-04-15 16:36 48.93441 19.06656 20155 ft 407 kts 317°
2026-04-15 16:37 48.95568 19.03822 19698 ft 404 kts 317°
2026-04-15 16:37 48.97680 19.01006 19358 ft 403 kts 317°
2026-04-15 16:37 48.99784 18.98198 19029 ft 401 kts 317°
2026-04-15 16:37 49.01879 18.95397 18692 ft 400 kts 317°
2026-04-15 16:38 49.03969 18.92601 18348 ft 399 kts 317°
2026-04-15 16:38 49.06045 18.89820 17971 ft 397 kts 317°
2026-04-15 16:38 49.08115 18.87044 17595 ft 395 kts 317°
2026-04-15 16:38 49.10171 18.84284 17225 ft 392 kts 317°
2026-04-15 16:39 49.12197 18.81562 16865 ft 390 kts 317°
2026-04-15 16:39 49.14230 18.78823 16499 ft 388 kts 317°
2026-04-15 16:39 49.16248 18.76105 16145 ft 386 kts 317°
2026-04-15 16:39 49.18252 18.73401 15792 ft 384 kts 317°
2026-04-15 16:40 49.20253 18.70698 15438 ft 382 kts 317°
2026-04-15 16:40 49.22237 18.68016 15099 ft 380 kts 317°
2026-04-15 16:40 49.24204 18.65355 14755 ft 374 kts 317°
2026-04-15 16:40 49.25509 18.63587 14526 ft 370 kts 317°
2026-04-15 16:41 49.27397 18.61027 14191 ft 365 kts 317°
2026-04-15 16:41 49.29294 18.58451 13844 ft 363 kts 317°
2026-04-15 16:41 49.31179 18.55885 13475 ft 362 kts 317°
2026-04-15 16:41 49.33059 18.53326 13108 ft 360 kts 317°
2026-04-15 16:42 49.34913 18.50803 12746 ft 359 kts 317°
2026-04-15 16:42 49.36787 18.48250 12393 ft 358 kts 317°
2026-04-15 16:42 49.38646 18.45724 12032 ft 356 kts 318°
2026-04-15 16:42 49.40565 18.43407 11690 ft 354 kts 322°
2026-04-15 16:43 49.42539 18.41205 11341 ft 347 kts 323°
2026-04-15 16:43 49.44478 18.39067 10993 ft 340 kts 323°
2026-04-15 16:43 49.46379 18.36968 10648 ft 333 kts 323°
2026-04-15 16:43 49.48240 18.34909 10325 ft 327 kts 322°
2026-04-15 16:44 49.50073 18.32876 9966 ft 322 kts 322°
2026-04-15 16:44 49.51870 18.30879 9600 ft 316 kts 322°
2026-04-15 16:44 49.53638 18.28912 9227 ft 311 kts 322°
2026-04-15 16:44 49.55378 18.26975 8861 ft 307 kts 323°
2026-04-15 16:45 49.57098 18.25061 8498 ft 303 kts 323°
2026-04-15 16:45 49.58902 18.23430 8148 ft 301 kts 337°
2026-04-15 16:45 49.60939 18.22813 7779 ft 299 kts
2026-04-15 16:45 49.62950 18.23469 7430 ft 296 kts 24°
2026-04-15 16:46 49.64625 18.25223 7081 ft 289 kts 43°
2026-04-15 16:46 49.66022 18.27408 6742 ft 283 kts 47°
2026-04-15 16:46 49.67355 18.29614 6379 ft 279 kts 48°
2026-04-15 16:46 49.68663 18.31777 6007 ft 272 kts 47°
2026-04-15 16:47 49.69937 18.33871 5640 ft 262 kts 47°
2026-04-15 16:47 49.71135 18.35832 5330 ft 247 kts 47°
2026-04-15 16:47 49.72292 18.37720 4993 ft 237 kts 47°
2026-04-15 16:47 49.73475 18.39476 4619 ft 236 kts 38°
2026-04-15 16:48 49.74927 18.40622 4253 ft 235 kts 15°
2026-04-15 16:48 49.76549 18.40777 3909 ft 234 kts 351°
2026-04-15 16:48 49.78046 18.39908 3657 ft 228 kts 327°
2026-04-15 16:48 49.79247 18.38399 3498 ft 218 kts 317°
2026-04-15 16:49 49.80325 18.36804 3323 ft 210 kts 315°
2026-04-15 16:49 49.81240 18.35121 3201 ft 199 kts 300°
2026-04-15 16:49 49.81685 18.33166 3132 ft 190 kts 272°
2026-04-15 16:49 49.81410 18.31203 3059 ft 188 kts 246°
2026-04-15 16:50 49.80798 18.29414 3005 ft 188 kts 235°
2026-04-15 16:50 49.79961 18.27865 3002 ft 188 kts 225°
2026-04-15 16:50 49.79084 18.26441 2983 ft 172 kts 225°
2026-04-15 16:50 49.78301 18.25168 3011 ft 158 kts 225°
2026-04-15 16:51 49.77553 18.23939 2912 ft 155 kts 225°
2026-04-15 16:51 49.76829 18.22736 2743 ft 154 kts 226°
2026-04-15 16:51 49.76107 18.21537 2587 ft 151 kts 225°
2026-04-15 16:51 49.75383 18.20359 2373 ft 151 kts 224°
2026-04-15 16:52 49.74637 18.19230 2166 ft 149 kts 224°
2026-04-15 16:52 49.73917 18.18056 1896 ft 151 kts 226°
2026-04-15 16:52 49.73206 18.16881 1628 ft 153 kts 226°
2026-04-15 16:52 49.72466 18.15694 1394 ft 154 kts 227°
2026-04-15 16:53 49.71726 18.14502 1185 ft 153 kts 227°
2026-04-15 16:53 49.70991 18.13307 952 ft 152 kts 227°
2026-04-15 16:53 49.70287 18.12157 827 ft 138 kts 227°
2026-04-15 16:53 49.69711 18.11231 829 ft 96 kts 226°
2026-04-15 16:54 49.69362 18.10672 831 ft 48 kts 226°
2026-04-15 16:54 49.69153 18.10334 841 ft 41 kts 227°
2026-04-15 16:54 49.69016 18.10110 834 ft 9 kts 227°
2026-04-15 16:54 49.68971 18.10048 833 ft 10 kts 205°
2026-04-15 16:55 49.68906 18.10099 835 ft 11 kts 140°
2026-04-15 16:55 49.68854 18.10175 842 ft 9 kts 134°
2026-04-15 16:55 49.68821 18.10228 831 ft 3 kts 134°
2026-04-15 16:55 49.68820 18.10228 831 ft 0 kts 134°
2026-04-15 16:56 49.68817 18.10234 833 ft 2 kts 134°
2026-04-15 16:57 49.68799 18.10262 838 ft 5 kts 135°
2026-04-15 16:57 49.68768 18.10309 835 ft 7 kts 135°
2026-04-15 16:57 49.68721 18.10321 837 ft 7 kts 201°
2026-04-15 16:57 49.68681 18.10265 833 ft 9 kts 225°
2026-04-15 16:58 49.68634 18.10229 832 ft 7 kts 162°
2026-04-15 16:58 49.68600 18.10254 834 ft 4 kts 183°
2026-04-15 16:58 49.68582 18.10237 844 ft 3 kts 216°
2026-04-15 16:58 49.68571 18.10220 838 ft 0 kts 224°